Kodiak, AK

5:48 AM AKDT on August 27, 2016 (GMT -0800)
Kodiak

Weather History for PADQ - March, 2014

Change the Weather History Date:

Saturday, March 8, 2014

  Actual Average Record
Temperature  
Mean Temperature 32 °F 32 °F  
Max Temperature 38 °F 37 °F 50 °F (1955)
Min Temperature 26 °F 27 °F 1 °F (1971)
Degree Days  
Heating Degree Days 33 33  
Month to date heating degree days 251 264  
Since 1 July heating degree days 5537 6137  
Cooling Degree Days 0    
Month to date cooling degree days 0  
Year to date cooling degree days 0  
Moisture  
Dew Point 16 °F    
Average Humidity 0    
Maximum Humidity 0    
Minimum Humidity 0    
Precipitation  
Precipitation 0.00 in 0.18 in 2.38 in (1994)
Month to date precipitation 0.03 1.45  
Year to date precipitation 21.28 15.88  
Snow  
Snow 0.00 in 0.30 in 7.60 in (1969)
Month to date snowfall 0.2 3.1  
Snow Depth 0.00 in    
Sea Level Pressure  
Sea Level Pressure 29.11 in    
Wind  
Wind Speed 10 mph (WNW)    
Max Wind Speed 21 mph    
Max Gust Speed 29 mph    
Visibility 10 miles    
Events      
T = Trace of Precipitation, MM = Missing Value Source: NWS Daily Summary

Daily Weather History Graph

Daily Weather History Graph

Search for Another Location

Airport or City:

Trip Planner

Search our weather history database for the weather conditions in past years. The results will help you decide how hot, cold, wet, or windy it might be!

Date:

Astronomy

Mar. 08, 2014 Rise Set
Actual Time 7:44 AM AKST 6:57 PM AKST
Civil Twilight 7:05 AM AKST 7:36 PM AKST
Nautical Twilight 6:20 AM AKST 8:22 PM AKST
Astronomical Twilight 5:33 AM AKST 9:09 PM AKST
Moon 11:14 AM AKST (3/8) 3:23 AM AKST (3/8)
Length of Visible Light 12h 31m
Length of Day
11h 13m
First Quarter, 53% of the Moon is Illuminated
Mar 8
First Quarter
Mar 16
Full
Mar 23
Last Quarter
Mar 30
New
Apr 7
First Quarter

Hourly Weather History & Observations

Time (AKST) Temp. Windchill Dew Point Humidity Pressure Visibility Wind Dir Wind Speed Gust Speed Precip Events Conditions
12:53 AM 30.9 °F 22.8 °F 19.9 °F 64% 29.18 in 10.0 mi NW 9.2 mph 18.4 mph N/A   Clear
1:53 AM 32.0 °F 24.8 °F 16.0 °F 52% 29.15 in 10.0 mi WNW 8.1 mph 26.5 mph N/A   Clear
2:53 AM 30.9 °F 22.2 °F 16.0 °F 54% 29.15 in 10.0 mi WNW 10.4 mph 18.4 mph N/A   Clear
3:53 AM 30.9 °F 22.2 °F 15.1 °F 52% 29.15 in 10.0 mi West 10.4 mph 18.4 mph N/A   Clear
4:53 AM 30.9 °F 22.8 °F 16.0 °F 54% 29.14 in 10.0 mi NW 9.2 mph - N/A   Clear
5:53 AM 30.0 °F 25.2 °F 17.1 °F 59% 29.13 in 10.0 mi Variable 4.6 mph - N/A   Clear
6:53 AM 30.9 °F 22.8 °F 16.0 °F 54% 29.12 in 10.0 mi NW 9.2 mph 16.1 mph N/A   Partly Cloudy
7:53 AM 30.0 °F 20.5 °F 16.0 °F 56% 29.12 in 10.0 mi WNW 11.5 mph - N/A   Partly Cloudy
8:53 AM 32.0 °F 23.0 °F 16.0 °F 52% 29.11 in 10.0 mi WNW 11.5 mph 19.6 mph N/A   Partly Cloudy
9:53 AM 33.1 °F 25.5 °F 17.1 °F 52% 29.11 in 10.0 mi WNW 9.2 mph 27.6 mph N/A   Partly Cloudy
10:53 AM 34.0 °F 24.6 °F 19.0 °F 54% 29.11 in 10.0 mi WNW 13.8 mph 23.0 mph N/A   Partly Cloudy
11:53 AM 34.0 °F 23.8 °F 19.9 °F 56% 29.10 in 10.0 mi West 16.1 mph 27.6 mph N/A   Partly Cloudy
12:53 PM 36.0 °F 26.0 °F 19.9 °F 52% 29.09 in 10.0 mi WNW 17.3 mph 23.0 mph N/A   Scattered Clouds
1:53 PM 36.0 °F 27.1 °F 18.0 °F 48% 29.08 in 10.0 mi WNW 13.8 mph 26.5 mph N/A   Scattered Clouds
2:53 PM 37.0 °F 29.8 °F 16.0 °F 42% 29.08 in 10.0 mi NW 10.4 mph 18.4 mph N/A   Partly Cloudy
3:53 PM 37.9 °F 32.1 °F 12.9 °F 36% 29.08 in 10.0 mi West 8.1 mph - N/A   Partly Cloudy
4:53 PM 37.9 °F 30.5 °F 10.9 °F 33% 29.07 in 10.0 mi West 11.5 mph - N/A   Clear
5:53 PM 36.0 °F 31.1 °F 10.9 °F 36% 29.07 in 10.0 mi West 5.8 mph - N/A   Clear
6:53 PM 34.0 °F 26.6 °F 12.9 °F 42% 29.07 in 10.0 mi West 9.2 mph - N/A   Clear
7:53 PM 32.0 °F 23.0 °F 18.0 °F 56% 29.08 in 10.0 mi WNW 11.5 mph - N/A   Clear
8:53 PM 32.0 °F 25.6 °F 19.0 °F 59% 29.09 in 10.0 mi NW 6.9 mph - N/A   Clear
9:53 PM 30.9 °F - 17.1 °F 57% 29.10 in 10.0 mi Calm Calm - N/A   Clear
10:53 PM 28.0 °F 24.2 °F 15.1 °F 58% 29.11 in 10.0 mi West 3.5 mph - N/A   Clear
11:53 PM 30.0 °F 21.7 °F 15.1 °F 54% 29.12 in 10.0 mi West 9.2 mph - N/A   Clear